Location: Rancho Del Sol Observatory
(38.7214°N, 120.6350°W)
Time: 14:15:14
(UTC-08:00)

Courier 1B - Pass Details

Date: 23 January 2020
Orbit: 962 x 1209 km, 28.3° (Epoch: 19 February)

Event Time Altitude Azimuth Distance (km) Brightness Sun altitude
Exits shadow 04:19:48 35° 173° (S) 1,801 8.8 -34.1°
Maximum altitude 04:19:59 35° 170° (S) 1,801 8.8 -34.1°
Drops below altitude 10° 04:26:50 10° 108° (ESE) 3,123 10.9 -32.8°
Sets 04:29:59 0° 100° (E) 4,101 11.8 -32.1°
